Location: Bishausen
(51.6334°N, 9.9631°E)
Time: 16:27:32
(UTC+00:00)

ADEOS II - Pass Details

Date: 23 May 2024
Orbit: 796 x 798 km, 98.7° (Epoch: 23 June)

Event Time Altitude Azimuth Distance (km) Brightness Sun altitude
Rises 01:11:39 0° 20° (NNE) 3,314 7.2 -13.5°
Reaches altitude 10° 01:14:08 10° 27° (NNE) 2,380 6.0 -13.3°
Maximum altitude 01:19:06 42° 98° (E) 1,133 3.1 -12.9°
Drops below altitude 10° 01:24:02 10° 169° (SSE) 2,362 4.1 -12.6°
Enters shadow 01:24:18 - 170° (S) 2,462 4.2 -12.5°
